Погода в Жиганске

Погода в Жиганске : погода сейчас, прогноз погоды и архив. Всё, что Вы хотите узнать о погоде в Жиганске!

Хотите узнать прогноз погоды в Жиганске? Тогда Вам сюда: Погода в Жиганске

Поиск расширенной информации на нашем сайте:

Другие новости

Новости СМИ2

Главная страница сайта

Новости сайта

02.10.2013

Напоминаем, что на нашем новом сайте вы можете получить высокодетализированные прогнозы погоды по пунктам России, СНГ и мира (включающие важные для авиации метеовеличины, такие как направление и скорость ветра, видимость, явления погоды, количество и форма облачности, нижняя и верхняя граница облачности), а также ознакомиться с разнообразными материалами по авиационной метеорологии и подборкой полезных ссылок на эту тему.

Сайт Метеоцентр.Азия посвящён разработке технологий оптимизации авиаметеорологического обслуживания, включая проектирование и перспективное создание нескольких автоматизированных авиаметеорологических систем:
- система выпуска высокодетальных прогностических карт явлений погоды для нижнего воздушного пространства по России и ближнему зарубежью;
- система верификации прогнозов TAF (выпускаемых синоптиками официальных АМСГ РФ и ближнего зарубежья) и AUTOTAF (выпускаемых сайтом Метеоцентр.Азия) - выявление ошибок, онлайн-сопоставление с фактической погодой METAR, автоматическое внесение коррективов в прогнозы при резком отклонении фактической погоды от прогноза, подсчёт оправдываемости прогнозов по элементам и в целом;
- система обработки, анализа и отображения авиаметеорологической информации для применения провайдерами метеорологической информации.


Погода в Жиганске - сегодня

Время (UTC), дата Ветер
(°,м/с) 
Видим.   Явления Облачность Т
(°С)
Тd
(°С)
f(%) Тe
(°С)
Pmin
(гПа)
dP
(гПа)
Po
(мм)
O2
(г/м3)
Тmin Tmax R s Состояние
почвы
06 19.01.17 160 (Ю) 10 км  слаб. снег  6/0 средняя, верхняя 
[Ac trans|Cs]
-34.8 -37.1 79 -41  1029.5  -0.8  762  354           
09 19.01.17 150 (ЮВ) 10 км  слаб. снег  10/0 средняя, верхняя 
[Ac trans|Cs]
-35.3 -37.7 78 -36  1029.8  0.3  762  355           
12 19.01.17 130 (ЮВ) 10 км  слаб. снег  10/0 верхняя 
[Cs]
-36.9 -39.1 80 -38  1030.3  0.4  762  357    -34.8  0.2     
15 19.01.17 180 (Ю) 10 км  слаб. снег  10/0 верхняя 
[Cs]
-34.9 -37.1 80 -36  1029.6  -0.6  762  354           
18 19.01.17 160 (Ю) 10 км  слаб. снег  10/0 верхняя 
[Cs]
-35 -37.4 79 -39  1029.7  0.1  762  354           
21 19.01.17 170 (Ю) 10 км  слаб. снег  10/0 верхняя 
[Cs]
-35.6 -37.7 81 -40  1029.9  0.2  762  355           
00 20.01.17 170 (Ю) 20000 м  в посл. час снег  6/0 верхняя 
[Ci sp]
-37.1 -39.5 78 -38  1030.2  0.2  762  358  -37.5    0.0  30  равномерный
сухой снег
100% 
03 20.01.17 160 (Ю) 20000 м    8/0 верхняя 
[Cs]
-36.9 -39.1 80 -41  1030.6  0.4  763  357           
06 20.01.17 180 (Ю) 20000 м    10/0 верхняя 
[Cs]
-36.7 -38.8 81 -41  1030.9  0.3  763  357           
09 20.01.17 170 (Ю) 20000 м    10/0 верхняя 
[Cs]
-37.3 -39.5 80 -38  1031.6  0.7  763  358           
12 20.01.17 140 (ЮВ) 20000 м  слаб. снег  10/0 верхняя 
[Cs]
-38.1 -40.3 80 -39  1031.9  0.1  764  360    -36.6  0.0     
15 20.01.17 180 (Ю) 20000 м  слаб. снег  10/0 верхняя 
[Cs]
-38.1 -40.3 80 -43  1031.1  -0.7  763  359           
18 20.01.17 170 (Ю) 20000 м  слаб. снег  10/0 верхняя 
[Cs]
-38.2 -40.3 80 -43  1031.2  0.1  763  360           
21 20.01.17 160 (Ю) 20000 м  слаб. снег  10/0 верхняя 
[Cs]
-37.6 -39.9 79 -44  1030.6  -0.5  763  358           
00 21.01.17 180 (Ю) 20000 м  слаб. снег  10/0 средняя, верхняя 
[As op|Cs]
-36.8 -39.1 79 -43  1031  0.4  763  357  -38.6    0.0  30  равномерный
сухой снег
100% 
03 21.01.17 180 (Ю) 10 км  слаб. снег  10/4 1500 м средняя 
[Sc|Ac As]
-36.9 -39.1 80 -43  1030.3  -0.7  762  357           
06 21.01.17 180 (Ю) 10 км  слаб. снег  10/4 1500 м средняя 
[Sc|Ac As]
-36.3 -38.4 81 -43  1030.1  -0.2  762  356           
09 21.01.17 210 (ЮЗ) 20000 м  слаб. снег  10/5 300 м средняя 
[St|Ac As]
-34.8 -37.1 79 -41  1029.5  -0.5  762  354           
12 21.01.17 190 (Ю) 20000 м  позёмок{снег}  10/0 средняя 
[Ac As]
-34.2 -36.5 79 -40  1029.3  -0.2  762  353    -34.2  0.0     
15 21.01.17 150 (ЮВ) 20000 м  слаб. снег  10/6 570 м средняя 
[St|Ac As]
-34.1 -36.5 79 -42  1027.9  -1.4  761  352           
18 21.01.17 170 (Ю) 4-10{10}  20000 м  слаб. снег  10/6 540 м средняя 
[St|Ac As]
-33.4 -35.6 81 -41  1026.3  -1.4  760  351           
21 21.01.17 180 (Ю) 4-10{10}  20000 м  слаб. снег  10/6 570 м средняя 
[St|Ac As]
-32.5 -34.8 80 -40  1025.4  -0.9  759  349           
00 22.01.17 180 (Ю) 4{10}  10 км  слаб. снег  10/8 480 м средняя 
[St|Ac As]
-31.9 -34.4 79 -39  1024.6  -0.7  758  348  -34.6    0.2  29  равномерный
сухой снег
100% 
03 22.01.17 180 (Ю) 4-10{10}  4000 м  слаб. снег  10/5 720 м верхняя 
[Sc|Cs]
-31.6 -33.9 80 -39  1023.3  -1.3  758  347           
06 22.01.17 170 (Ю) 4{10}  4000 м  слаб. снег  10/6 270 м верхняя 
[St|Cs]
-31.3 -33.6 80 -39  1022.8  -0.5  757  347           
Время (UTC), дата Ветер
(°,м/с) 
Видим.   Явления Облачность Т
(°С)
Тd
(°С)
f(%) Тe
(°С)
Pmin
(гПа)
dP
(гПа)
Po
(мм)
O2
(г/м3)
Тmin Tmax R s Состояние
почвы

Для получения пояснительной информации подведите курсор к названию столбца.

ПОГОДА в Жиганске - архив

Всё, что Вы хотите узнать о погоде в Жиганске - удобно и подробно!

Выберите нужную дату (начиная с 1 января 2015* года) и нажмите кнопку "Найти".
Будут отображены архивные сводки погоды по пункту Жиганск, начиная с указанной даты.


Отображать данные в формате CSV (для использования в таблицах Excel)


Внимание! Наш архив погоды предназначен исключительно для личного некоммерческого использования в познавательных целях. Если Вам необходимы официальные справки о состоянии погоды (для производственных, юридических, коммерческих и т.п. целей), обращайтесь в органы Росгидромета.

*Примечание: данная дата относится к архиву по метеостанциям СССР (Россия, СНГ, Балтия).
Архив по метеостанциям Зарубежной Европы и Азии (кроме Китая) хранится 10 дней, по другим регионам земного шара (Китай, Африка, Америка, Австралия, Океания) - 1 день.

Жиганск - район местоположения метеостанции


Название, широта, долгота, высота метеостанции:
Жиганск 66.8°ш. 123.4°д. 92 м над ур. моря [Российская Федерация]

Дополнительная информация

В oтличие oт бoльшинства пoгoдных сайтoв мы публикуем пoдрoбную метеoинфoрмацию в детальнoм прoфессиoнальнoм фoрмате.

Характеристики температуры и влажнoсти вoздуха измеряются на высoте 2 м в тени вдали oт зданий и деревьев.
Скoрoсть ветра измеряется на высoте 10 м (на урoвне рoста челoвека скoрoсть ветра ниже в 1.5-2 раза). Если метеoстанция нахoдится в гoрoде или в лесу, тo скoрoсть ветра занижена на 2-4 м/с пo сравнению с oткрытым местoм. Скoрoсть ветра над акватoриями крупных рек и oзёр, а также на вершинах хoлмoв на 2-5 м/с выше, чем в oбычных услoвиях.
Атмoсфернoе давление в разных тoчках местнoсти мoжет значительнo oтличаться oт давления на метеoстанции, в зависимoсти oт услoвий рельефа (при пoдъёме на 10 м давление пoнижается примернo на 1 мм рт.ст.).